When you browse on this site, cookies collect data to enhance your experience and personalize the content and advertising you see.
Visit our Privacy Policy to learn more. By continuing to use the site, you agree to this use of cookies and data.
  • In Sweden
  • List of Countries
  • For 7 days
  • Water Temperature
  • Weather Map
  • Weather Widgets
  • user-avatar
    Login

    Hourly Weather Cliffside Park

    Today, 22 August, Thursday

    Time Temperature Precipitation Wind Pressure Humidity
    00:00 +29°C° 0 mm 2 mps 753 mmHg 66%
    01:00 +28°C° 0 mm 2 mps 753 mmHg 68%
    02:00 +28°C° 0 mm 2 mps 753 mmHg 68%
    03:00 +28°C° 0 mm 2 mps 753 mmHg 69%
    04:00 +27°C° 0 mm 2 mps 752 mmHg 70%
    05:00 +28°C° 0 mm 2 mps 753 mmHg 68%
    06:00 +28°C° 0 mm 2 mps 753 mmHg 67%
    07:00 +28°C° 0 mm 2 mps 754 mmHg 65%
    08:00 +29°C° 0 mm 2 mps 754 mmHg 59%
    09:00 +31°C° 0 mm 2 mps 754 mmHg 53%
    10:00 +32°C° 0 mm 2 mps 754 mmHg 47%
    11:00 +34°C° 0 mm 3 mps 754 mmHg 43%
    12:00 +35°C° 0 mm 3 mps 754 mmHg 39%
    13:00 +36°C° 0 mm 3 mps 754 mmHg 35%
    14:00 +36°C° 0 mm 3 mps 753 mmHg 35%
    15:00 +36°C° 0 mm 3 mps 753 mmHg 35%
    16:00 +36°C° 0 mm 4 mps 753 mmHg 36%
    17:00 +35°C° 0 mm 3 mps 753 mmHg 41%
    18:00 +34°C° 0 mm 3 mps 753 mmHg 46%
    19:00 +33°C° 0 mm 3 mps 753 mmHg 51%
    20:00 +31°C° 0.6 mm 3 mps 753 mmHg 56%
    21:00 +30°C° 0.6 mm 4 mps 753 mmHg 60%
    22:00 +29°C° 0.6 mm 4 mps 753 mmHg 65%
    23:00 +28°C° 0.4 mm 3 mps 754 mmHg 67%

    Tomorrow, 23 August, Friday

    Time Temperature Precipitation Wind Pressure Humidity
    00:00 +26°C° 0.4 mm 3 mps 754 mmHg 69%
    01:00 +25°C° 0.4 mm 2 mps 754 mmHg 71%
    02:00 +25°C° 0.1 mm 2 mps 754 mmHg 72%
    03:00 +24°C° 0.1 mm 3 mps 754 mmHg 73%
    04:00 +22°C° 0.1 mm 4 mps 753 mmHg 74%
    05:00 +22°C° 0 mm 3 mps 754 mmHg 72%
    06:00 +22°C° 0 mm 3 mps 755 mmHg 70%
    07:00 +22°C° 0 mm 3 mps 756 mmHg 68%
    08:00 +24°C° 0 mm 3 mps 756 mmHg 60%
    09:00 +25°C° 0 mm 3 mps 756 mmHg 53%
    10:00 +26°C° 0 mm 3 mps 756 mmHg 46%
    11:00 +27°C° 0 mm 3 mps 756 mmHg 42%
    12:00 +29°C° 0 mm 3 mps 756 mmHg 38%
    13:00 +30°C° 0 mm 3 mps 756 mmHg 34%
    14:00 +30°C° 0 mm 3 mps 756 mmHg 35%
    15:00 +29°C° 0 mm 3 mps 755 mmHg 36%
    16:00 +29°C° 0 mm 3 mps 755 mmHg 36%
    17:00 +29°C° 0 mm 3 mps 756 mmHg 39%
    18:00 +28°C° 0 mm 4 mps 756 mmHg 42%
    19:00 +27°C° 0 mm 4 mps 757 mmHg 44%
    20:00 +26°C° 0 mm 4 mps 757 mmHg 45%
    21:00 +25°C° 0 mm 4 mps 757 mmHg 46%
    22:00 +25°C° 0 mm 4 mps 757 mmHg 47%
    23:00 +23°C° 0 mm 4 mps 758 mmHg 49%

    Day after tomorrow, 24 August, Saturday

    Time Temperature Precipitation Wind Pressure Humidity
    00:00 +23°C° 0 mm 4 mps 758 mmHg 50%
    01:00 +22°C° 0 mm 4 mps 758 mmHg 52%
    02:00 +22°C° 0 mm 4 mps 758 mmHg 51%
    03:00 +21°C° 0 mm 4 mps 758 mmHg 51%
    04:00 +21°C° 0 mm 4 mps 758 mmHg 51%
    05:00 +21°C° 0 mm 4 mps 759 mmHg 50%
    06:00 +21°C° 0 mm 4 mps 759 mmHg 49%
    07:00 +21°C° 0 mm 4 mps 760 mmHg 48%
    08:00 +22°C° 0 mm 4 mps 760 mmHg 43%
    09:00 +25°C° 0 mm 3 mps 760 mmHg 39%
    10:00 +26°C° 0 mm 3 mps 760 mmHg 34%
    11:00 +27°C° 0 mm 3 mps 760 mmHg 32%
    12:00 +28°C° 0 mm 3 mps 760 mmHg 31%
    13:00 +29°C° 0 mm 3 mps 760 mmHg 29%
    14:00 +29°C° 0 mm 3 mps 760 mmHg 30%
    15:00 +29°C° 0 mm 3 mps 759 mmHg 32%
    16:00 +29°C° 0 mm 3 mps 759 mmHg 33%
    17:00 +28°C° 0 mm 3 mps 760 mmHg 37%
    18:00 +27°C° 0 mm 2 mps 760 mmHg 40%
    19:00 +26°C° 0 mm 2 mps 760 mmHg 44%
    20:00 +25°C° 0 mm 2 mps 761 mmHg 46%
    21:00 +25°C° 0 mm 2 mps 761 mmHg 48%
    22:00 +24°C° 0 mm 1 mps 761 mmHg 51%
    23:00 +24°C° 0 mm 2 mps 761 mmHg 52%

    25 August, Sunday

    Time Temperature Precipitation Wind Pressure Humidity
    00:00 +24°C° 0 mm 2 mps 761 mmHg 54%
    01:00 +23°C° 0 mm 2 mps 762 mmHg 56%
    02:00 +23°C° 0 mm 2 mps 762 mmHg 57%
    03:00 +22°C° 0 mm 3 mps 762 mmHg 57%
    04:00 +22°C° 0 mm 3 mps 762 mmHg 58%
    05:00 +22°C° 0 mm 3 mps 762 mmHg 58%
    06:00 +22°C° 0 mm 4 mps 762 mmHg 58%
    07:00 +22°C° 0 mm 4 mps 763 mmHg 58%
    08:00 +23°C° 0 mm 4 mps 763 mmHg 53%
    09:00 +25°C° 0 mm 5 mps 763 mmHg 48%
    10:00 +26°C° 0 mm 5 mps 763 mmHg 43%
    11:00 +26°C° 0 mm 5 mps 763 mmHg 42%
    12:00 +26°C° 0 mm 5 mps 763 mmHg 41%
    13:00 +27°C° 0 mm 5 mps 763 mmHg 41%
    14:00 +27°C° 0 mm 5 mps 762 mmHg 42%
    15:00 +27°C° 0 mm 5 mps 762 mmHg 43%
    16:00 +26°C° 0 mm 5 mps 762 mmHg 44%
    17:00 +26°C° 0 mm 5 mps 762 mmHg 48%
    18:00 +25°C° 0 mm 5 mps 762 mmHg 52%
    19:00 +23°C° 0 mm 5 mps 762 mmHg 55%
    20:00 +23°C° 0 mm 5 mps 763 mmHg 56%
    21:00 +22°C° 0 mm 5 mps 763 mmHg 56%
    22:00 +21°C° 0 mm 5 mps 763 mmHg 56%
    23:00 +21°C° 0 mm 4 mps 763 mmHg 56%

    26 August, Monday

    Time Temperature Precipitation Wind Pressure Humidity
    00:00 +20°C° 0 mm 4 mps 763 mmHg 55%
    01:00 +19°C° 0 mm 4 mps 763 mmHg 55%
    02:00 +19°C° 0 mm 4 mps 763 mmHg 57%
    03:00 +18°C° 0 mm 4 mps 763 mmHg 59%
    04:00 +17°C° 0 mm 4 mps 763 mmHg 61%
    05:00 +17°C° 0 mm 4 mps 763 mmHg 63%
    06:00 +17°C° 0 mm 4 mps 763 mmHg 65%
    07:00 +17°C° 0 mm 4 mps 763 mmHg 68%
    08:00 +19°C° 0 mm 4 mps 763 mmHg 64%
    09:00 +20°C° 0 mm 4 mps 763 mmHg 60%
    10:00 +22°C° 0 mm 3 mps 763 mmHg 56%
    11:00 +23°C° 0 mm 4 mps 763 mmHg 54%
    12:00 +25°C° 0 mm 4 mps 763 mmHg 52%
    13:00 +26°C° 0 mm 4 mps 763 mmHg 50%
    14:00 +26°C° 0 mm 4 mps 762 mmHg 51%
    15:00 +26°C° 0 mm 4 mps 762 mmHg 53%
    16:00 +26°C° 0 mm 4 mps 762 mmHg 54%
    17:00 +25°C° 0.1 mm 4 mps 762 mmHg 58%
    18:00 +25°C° 0.1 mm 5 mps 762 mmHg 61%
    19:00 +23°C° 0.1 mm 5 mps 762 mmHg 65%
    20:00 +22°C° 0 mm 5 mps 762 mmHg 65%
    21:00 +22°C° 0 mm 5 mps 762 mmHg 66%
    22:00 +22°C° 0 mm 4 mps 762 mmHg 66%
    23:00 +21°C° 0 mm 4 mps 762 mmHg 68%

    27 August, Tuesday

    Time Temperature Precipitation Wind Pressure Humidity
    00:00 +21°C° 0 mm 4 mps 762 mmHg 69%
    01:00 +21°C° 0 mm 4 mps 762 mmHg 71%
    02:00 +20°C° 0 mm 4 mps 762 mmHg 72%
    03:00 +20°C° 0 mm 3 mps 761 mmHg 74%
    04:00 +20°C° 0 mm 3 mps 761 mmHg 76%
    05:00 +20°C° 0 mm 3 mps 761 mmHg 76%
    06:00 +20°C° 0 mm 3 mps 762 mmHg 75%
    07:00 +20°C° 0 mm 4 mps 762 mmHg 75%
    08:00 +21°C° 0 mm 4 mps 762 mmHg 70%
    09:00 +22°C° 0 mm 4 mps 761 mmHg 66%
    10:00 +24°C° 0 mm 3 mps 761 mmHg 62%
    11:00 +25°C° 0 mm 4 mps 761 mmHg 60%
    12:00 +26°C° 0 mm 4 mps 760 mmHg 58%
    13:00 +27°C° 0 mm 4 mps 760 mmHg 56%
    14:00 +27°C° 0 mm 4 mps 760 mmHg 56%
    15:00 +27°C° 0 mm 4 mps 759 mmHg 57%
    16:00 +27°C° 0 mm 4 mps 759 mmHg 57%
    17:00 +27°C° 0 mm 4 mps 759 mmHg 62%
    18:00 +26°C° 0 mm 4 mps 759 mmHg 66%
    19:00 +25°C° 0 mm 4 mps 759 mmHg 70%
    20:00 +25°C° 0 mm 3 mps 759 mmHg 73%
    21:00 +25°C° 0 mm 3 mps 759 mmHg 76%
    22:00 +25°C° 0 mm 3 mps 758 mmHg 78%
    23:00 +25°C° 0 mm 2 mps 758 mmHg 79%
    Show more